Regional Weather Roundup
Issued by NWS

Home | Current Version | Previous Version | Text Only | Print | Product List | Glossary Off
Versions: 1 2 3 4 5 6 7 8 9 10 11 12 13 14 15 16 17 18 19 20 21 22 23 24 25 26 27 28 29 30 31 32 33 34 35 36 37 38 39 40 41 42 43 44 45 46 47 48 49 50

000
ASUS43 KMKX 240010
RWRWI

WISCONSIN REGIONAL WEATHER ROUNDUP
NATIONAL WEATHER SERVICE MILWAUKEE/SULLIVAN WI
700 PM CDT MON APR 23 2018

NOTE: "FAIR" INDICATES FEW OR NO CLOUDS BELOW 12,000 FEET WITH NO
SIGNIFICANT WEATHER AND/OR OBSTRUCTIONS TO VISIBILITY.

WIZ001-002-006>008-014>016-023>028-240100-
NORTHWEST WISCONSIN

CITY           SKY/WX    TMP DP  RH WIND       PRES   REMARKS
SUPERIOR ARPT  CLOUDY    66  37  34 SW6       30.09S
6HR MIN TEMP:  64; 6HR MAX TEMP:  70;

ASHLAND        FAIR      65  29  25 SW3       30.11F
6HR MIN TEMP:  62; 6HR MAX TEMP:  67;

HAYWARD        FAIR      63  31  30 SE9       30.13S
6HR MIN TEMP:  62; 6HR MAX TEMP:  67;

SIREN          FAIR      65  33  29 W5        30.13S
6HR MIN TEMP:  64; 6HR MAX TEMP:  68;

CUMBERLAND     FAIR      59  30  33 CALM      30.13F
RICE LAKE      FAIR      63  33  32 N3        30.15F
6HR MIN TEMP:  60; 6HR MAX TEMP:  64;

CHETEK         FAIR      59  33  38 N6        30.13S
6HR MIN TEMP:  58; 6HR MAX TEMP:  65;

LADYSMITH      FAIR      64  31  29 W3        30.15S
6HR MIN TEMP:  62; 6HR MAX TEMP:  66;

EAU CLAIRE     FAIR      67  28  23 CALM      30.11F
6HR MIN TEMP:  63; 6HR MAX TEMP:  70;

MENOMONIE      FAIR      67  29  24 CALM      30.12F
6HR MIN TEMP:  64; 6HR MAX TEMP:  69;

NEW RICHMOND   FAIR      65  31  28 NE3       30.13S
6HR MIN TEMP:  64; 6HR MAX TEMP:  68;

OSCEOLA        FAIR      67  32  27 CALM      30.15S
6HR MIN TEMP:  65; 6HR MAX TEMP:  69;

$$

WIZ003>005-009-010-017-018-240100-
NORTH CENTRAL WISCONSIN

CITY           SKY/WX    TMP DP  RH WIND       PRES   REMARKS
MANITOWISH WTR FAIR      56  28  33 W5        30.13S
6HR MIN TEMP:  55; 6HR MAX TEMP:  62;

ARBOR VITAE    FAIR      62  26  25 W5        30.13S
6HR MIN TEMP:  59; 6HR MAX TEMP:  63;

WOODRUFF       FAIR      62  26  25 W5        30.13S
6HR MIN TEMP:  59; 6HR MAX TEMP:  63;

RHINELANDER    FAIR      63  25  23 CALM      30.14F
6HR MIN TEMP:  59; 6HR MAX TEMP:  65;

EAGLE RIVER    FAIR      59  22  23 SW6       30.12F
6HR MIN TEMP:  55; 6HR MAX TEMP:  62;

LAND O LAKES   FAIR      62  22  21 CALM      30.14F
6HR MIN TEMP:  59; 6HR MAX TEMP:  64;

PHILLIPS       FAIR      62  30  30 SW3       30.13F
6HR MIN TEMP:  59; 6HR MAX TEMP:  63;

TOMAHAWK       FAIR      60  22  23 CALM      30.14S
6HR MIN TEMP:  58; 6HR MAX TEMP:  63;

MEDFORD        FAIR      58  36  44 S3        30.13F
6HR MIN TEMP:  55; 6HR MAX TEMP:  60;

MERRILL        FAIR      63  28  26 SW5       30.14F
6HR MIN TEMP:  59; 6HR MAX TEMP:  65;

$$

WIZ029-030-035-036-043>047-240100-
CENTRAL WISCONSIN

CITY           SKY/WX    TMP DP  RH WIND       PRES   REMARKS
WAUSAU         FAIR      63  27  25 NW5       30.11F
6HR MIN TEMP:  59; 6HR MAX TEMP:  65;

MOSINEE        PTCLDY    59  30  33 S3        30.14F
MARSHFIELD     FAIR      60  32  34 SE3       30.12F
6HR MIN TEMP:  58; 6HR MAX TEMP:  63;

STEVENS POINT  FAIR      58  23  25 CALM      30.14F
6HR MIN TEMP:  57; 6HR MAX TEMP:  61;

WAUPACA        FAIR      62  25  25 E3        30.15F
6HR MIN TEMP:  62; 6HR MAX TEMP:  65;

WAUTOMA        FAIR      61  30  31 E5        30.14S
6HR MIN TEMP:  61; 6HR MAX TEMP:  64;

WISC RAPIDS    FAIR      61  23  23 E7        30.14F
6HR MIN TEMP:  61; 6HR MAX TEMP:  66;

CAMP DOUGLAS   NOT AVBL
$$

WIZ011>013-019>022-031-037>040-048>050-240100-
NORTHEAST WISCONSIN

CITY           SKY/WX    TMP DP  RH WIND       PRES   REMARKS
ANTIGO         FAIR      57  35  44 CALM      30.14F
6HR MIN TEMP:  56; 6HR MAX TEMP:  60;

SHAWANO        FAIR      59  29  31 SE3       30.14F
6HR MIN TEMP:  59; 6HR MAX TEMP:  64;

OCONTO         FAIR      57  28  32 SE5       30.14F
6HR MIN TEMP:  57; 6HR MAX TEMP:  63;

STURGEON BAY   NOT AVBL
GREEN BAY      FAIR      57  34  41 NE7       30.14F
6HR MIN TEMP:  57; 6HR MAX TEMP:  63;

MANITOWOC      FAIR      56  26  31 NE6       30.15F
6HR MIN TEMP:  56; 6HR MAX TEMP:  61;

APPLETON       PTCLDY    59  27  29 N7        30.14F
CLINTONVILLE   FAIR      56  26  31 CALM      30.14F
6HR MIN TEMP:  56; 6HR MAX TEMP:  63;

OSHKOSH        FAIR      60  32  34 NE7       30.13F
6HR MIN TEMP:  58; 6HR MAX TEMP:  61;

$$

WIZ032>034-041-042-053>061-240100-
SOUTHWEST WISCONSIN

CITY           SKY/WX    TMP DP  RH WIND       PRES   REMARKS
LA CROSSE      FAIR      70  28  21 SW3       30.09F
6HR MIN TEMP:  64; 6HR MAX TEMP:  71;

SPARTA         FAIR      66  27  22 E6        30.12S
6HR MIN TEMP:  65; 6HR MAX TEMP:  69;

VIROQUA        FAIR      63  35  34 N6        30.11F
6HR MIN TEMP:  62; 6HR MAX TEMP:  67;

BOSCOBEL       FAIR      68  26  20 NE6       30.10F
6HR MIN TEMP:  66; 6HR MAX TEMP:  72;

PRAIRIE DU CHI FAIR      67  23  18 E6        30.09S
6HR MIN TEMP:  65; 6HR MAX TEMP:  70;

PLATTEVILLE    FAIR      64  31  29 NE9       30.10F
6HR MIN TEMP:  64; 6HR MAX TEMP:  68;

$$

WIZ056-057-062-063-064-067-068-240100-
SOUTH CENTRAL WISCONSIN

CITY           SKY/WX    TMP DP  RH WIND       PRES   REMARKS
REEDSBURG      FAIR      64  30  28 E8        30.11F
6HR MIN TEMP:  61; 6HR MAX TEMP:  67;

BARABOO/DELLS  FAIR      62  26  25 E8        30.12S
6HR MIN TEMP:  62; 6HR MAX TEMP:  66;

LONE ROCK      FAIR      65  28  24 E10       30.10F
6HR MIN TEMP:  63; 6HR MAX TEMP:  69;

MINERAL POINT  FAIR      64  28  25 NE8       30.11S
MADISON        MOCLDY    60  32  34 NE10      30.11F
6HR MIN TEMP:  60; 6HR MAX TEMP:  68;

MIDDLETON      FAIR      60  33  37 NE6       30.11F
6HR MIN TEMP:  60; 6HR MAX TEMP:  68;

WATERTOWN      FAIR      60  31  33 N6        30.11S
6HR MIN TEMP:  60; 6HR MAX TEMP:  66;

MONROE         FAIR      63  27  25 NE10      30.10S
JANESVILLE     PTCLDY    64  25  22 E9        30.10S
$$

WIZ051-052-058>065-066-070>072-240100-
SOUTHEAST WISCONSIN

CITY           SKY/WX    TMP DP  RH WIND       PRES   REMARKS
MILWAUKEE      MOCLDY    53  22  29 N15G26    30.13S
6HR MIN TEMP:  53; 6HR MAX TEMP:  59;

WAUKESHA       CLEAR     57  23  26 NE8       30.13S
MILWAUKEE/TIMM CLEAR     57  18  21 NE7       30.13F
RACINE         FAIR      50  24  36 N12       30.13F
6HR MIN TEMP:  50; 6HR MAX TEMP:  58;

BURLINGTON     FAIR      60  24  25 E8        30.11F
6HR MIN TEMP:  60; 6HR MAX TEMP:  66;

KENOSHA        FAIR      56  24  29 NE14      30.11F
6HR MIN TEMP:  56; 6HR MAX TEMP:  64;

FOND DU LAC    FAIR      56  35  45 NE8       30.13F
6HR MIN TEMP:  56; 6HR MAX TEMP:  63;

SHEBOYGAN      FAIR      54  33  45 NE8       30.13F
6HR MIN TEMP:  54; 6HR MAX TEMP:  62;

WEST BEND      FAIR      57  27  30 NE7       30.13S
JUNEAU         FAIR      58  28  31 CALM      30.13F
6HR MIN TEMP:  58; 6HR MAX TEMP:  65;

$$

LSZ147-162-240100-
LAKE SUPERIOR

STATION/POSITION TIME  TEMP    WIND        PRES    WAVE
                       AIR SEA DIR/SP/G            HT/PER
                 (UTC) (F)     (DEG/KT/KT) (MB)    (FT/S)
DEVILS ISLAND    2300   61     210/  9/ 10 1019.3F
SAXON HARBOR     2340   56     110/  2/  2 1019.0F
$$

LMZ867-665-643>646-240100-
LAKE MICHIGAN

STATION/POSITION TIME  TEMP    WIND        PRES    WAVE
                       AIR SEA DIR/SP/G            HT/PER
                 (UTC) (F)     (DEG/KT/KT) (MB)    (FT/S)
NORTHPORT PIER   2340



USA.gov is the U.S. government's official web portal to all federal, state and local government web resources and services.